Location: Newark
(42.8481°N, 0.4872°E)
Time: 09:09:53
(UTC+00:00)

A-11 Canister half - Pass Details

Date: 30 October 2020
Orbit: 1516 x 1684 km, 47.2° (Epoch: 04 December)

Event Time Altitude Azimuth Distance (km) Brightness Sun altitude
Exits shadow 02:46:26 15° 157° (SSE) 3,313 10.7 -41.0°
Drops below altitude 10° 02:47:49 10° 153° (SSE) 3,712 11.0 -40.8°
Sets 02:50:59 0° 147° (SSE) 4,676 11.7 -40.2°
